Location: Centerville
(32.8776°N, 96.6203°W)
Time: 05:42:05
(UTC+00:00)

IDEFIX/ARIANE 42P - Pass Details

Date: 17 June 2021
Orbit: 784 x 803 km, 98.4° (Epoch: 29 July)

Event Time Altitude Azimuth Distance (km) Brightness Sun altitude
Rises 08:12:35 0° 27° (NNE) 3,304 7.0 -28.4°
Reaches altitude 10° 08:15:16 10° 39° (NE) 2,367 6.0 -28.1°
Maximum altitude 08:19:40 27° 96° (E) 1,483 4.1 -27.7°
Enters shadow 08:20:55 24° 120° (ESE) 1,572 4.1 -27.6°
